This demonstration page uses our WeatherBlox Daily Observations layout. Learn more.

Hourly Observations for November 8, 2018

Temp ( °F °C ) Dew Point ( °F °C ) Humidity (%) Winds ( mph kmh ) Pressure ( in mb ) Visibility ( mi km ) Precip ( " mm )
12:15 am 00:15 Cloudy 55 13 37 3 51 51 N 8 13 30.18 1022 10 16.09344 0 0
12:35 am 00:35 Cloudy 55 13 37 3 51 51 NNW 10 17 30.18 1022 10 16.09344 0 0
12:55 am 00:55 Cloudy 54 12 36 2 51 51 NNW 10 17 30.15 1021 10 16.09344 0 0
1:15 am 01:15 Cloudy 54 12 36 2 51 51 N 8 13 30.18 1022 10 16.09344 0 0
1:35 am 01:35 Cloudy 54 12 36 2 51 51 N 8 13 30.18 1022 10 16.09344 0 0
1:55 am 01:55 Cloudy 54 12 36 2 51 51 N 8 13 30.15 1021 10 16.09344 0 0
2:15 am 02:15 Mostly Cloudy 52 11 36 2 54 54 N 6 9 30.15 1021 10 16.09344 0 0
2:35 am 02:35 Cloudy 52 11 36 2 54 54 N 6 9 30.21 1023 10 16.09344 0 0
2:55 am 02:55 Partly Cloudy 52 11 37 3 58 58 NNE 7 11 30.21 1023 10 16.09344 0 0
3:15 am 03:15 Clear 50 10 37 3 62 62 N 10 17 30.21 1023 10 16.09344 0 0
3:35 am 03:35 Clear 50 10 37 3 62 62 NNE 9 15 30.21 1023 10 16.09344 0 0
3:55 am 03:55 Partly Cloudy 50 10 37 3 62 62 NNE 7 11 30.21 1023 10 16.09344 0 0
4:15 am 04:15 Cloudy 50 10 37 3 62 62 NNE 8 13 30.24 1024 10 16.09344 0 0
4:35 am 04:35 Cloudy 50 10 37 3 62 62 N 8 13 30.24 1024 10 16.09344 0 0
4:55 am 04:55 Cloudy 50 10 37 3 62 62 N 7 11 30.24 1024 10 16.09344 0 0
5:15 am 05:15 Cloudy 50 10 37 3 62 62 NNE 7 11 30.24 1024 10 16.09344 0 0
5:35 am 05:35 Cloudy 50 10 37 3 62 62 N 6 9 30.24 1024 10 16.09344 0 0
5:55 am 05:55 Cloudy 50 10 37 3 62 62 N 6 9 30.24 1024 10 16.09344 0 0
6:15 am 06:15 Cloudy 50 10 37 3 62 62 N 6 9 30.27 1025 10 16.09344 0 0
6:35 am 06:35 Cloudy 48 9 37 3 66 66 N 6 9 30.27 1025 10 16.09344 0 0
6:55 am 06:55 Cloudy 48 9 37 3 66 66 N 7 11 30.27 1025 10 16.09344 0 0
7:15 am 07:15 Cloudy 48 9 37 3 66 66 N 6 9 30.3 1026 10 16.09344 0 0
7:30 am 07:30 Mostly Cloudy 46 8 37 3 71 71 N 6 9 30.3 1026 10 16.09344 0 0
7:55 am 07:55 Partly Cloudy 46 8 37 3 71 71 N 5 7 30.3 1026 10 16.09344 0 0
8:15 am 08:15 Partly Cloudy 48 9 37 3 66 66 N 6 9 30.33 1027 10 16.09344 0 0
8:35 am 08:35 Sunny 50 10 37 3 62 62 N 8 13 30.33 1027 10 16.09344 0 0
8:55 am 08:55 Sunny 50 10 37 3 62 62 N 6 9 30.33 1027 10 16.09344 0 0
9:15 am 09:15 Sunny 50 10 37 3 62 62 NNE 8 13 30.33 1027 10 16.09344 0 0
9:35 am 09:35 Sunny 50 10 36 2 58 58 NNE 12 19 30.33 1027 10 16.09344 0 0
9:55 am 09:55 Sunny 50 10 37 3 62 62 NNE 9 15 30.33 1027 10 16.09344 0 0
10:15 am 10:15 Sunny 52 11 37 3 58 58 N 12 19 30.33 1027 10 16.09344 0 0
10:35 am 10:35 Sunny 52 11 37 3 58 58 NNW 8 13 30.33 1027 10 16.09344 0 0
10:55 am 10:55 Sunny 52 11 37 3 58 58 N 10 17 30.33 1027 10 16.09344 0 0
11:15 am 11:15 Sunny 52 11 37 3 58 58 N 6 9 30.33 1027 10 16.09344 0 0
11:35 am 11:35 Sunny 54 12 37 3 54 54 NNW 9 15 30.33 1027 10 16.09344 0 0
11:55 am 11:55 Sunny 54 12 37 3 54 54 Calm 30.33 1027 10 16.09344 0 0
12:15 pm 12:15 Sunny 54 12 37 3 54 54 NNW 3 6 30.33 1027 10 16.09344 0 0
12:35 pm 12:35 Sunny 54 12 37 3 54 54 NNE 3 6 30.3 1026 10 16.09344 0 0
12:55 pm 12:55 Sunny 54 12 37 3 54 54 NNE 3 6 30.3 1026 10 16.09344 0 0
1:15 pm 13:15 Sunny 55 13 36 2 47 47 N 9 15 30.27 1025 10 16.09344 0 0
1:35 pm 13:35 Sunny 55 13 36 2 47 47 N 8 13 30.27 1025 10 16.09344 0 0
1:55 pm 13:55 Sunny 55 13 36 2 47 47 N 7 11 30.27 1025 10 16.09344 0 0
2:15 pm 14:15 Sunny 55 13 36 2 47 47 NNW 8 13 30.27 1025 10 16.09344 0 0
2:35 pm 14:35 Sunny 55 13 36 2 47 47 NNW 7 11 30.27 1025 10 16.09344 0 0
2:55 pm 14:55 Sunny 54 12 36 2 51 51 NNW 7 11 30.3 1026 10 16.09344 0 0
3:15 pm 15:15 Sunny 55 13 37 3 51 51 N 6 9 30.27 1025 10 16.09344 0 0
3:35 pm 15:35 Sunny 54 12 36 2 51 51 NNE 5 7 30.3 1026 10 16.09344 0 0
3:55 pm 15:55 Sunny 54 12 36 2 51 51 NE 6 9 30.3 1026 10 16.09344 0 0
4:15 pm 16:15 Sunny 54 12 36 2 51 51 NNE 3 6 30.3 1026 10 16.09344 0 0
4:35 pm 16:35 Sunny 54 12 36 2 51 51 NE 5 7 30.33 1027 10 16.09344 0 0
4:55 pm 16:55 Sunny 54 12 36 2 51 51 NNE 5 7 30.33 1027 10 16.09344 0 0
5:15 pm 17:15 Clear 52 11 36 2 54 54 NNE 6 9 30.33 1027 10 16.09344 0 0
5:35 pm 17:35 Clear 52 11 36 2 54 54 Calm 30.33 1027 10 16.09344 0 0
5:55 pm 17:55 Clear 52 11 36 2 54 54 Calm 30.33 1027 10 16.09344 0 0
6:15 pm 18:15 Clear 50 10 37 3 62 62 NNE 3 6 30.33 1027 10 16.09344 0 0
6:35 pm 18:35 Clear 50 10 37 3 62 62 N 5 7 30.33 1027 10 16.09344 0 0
6:55 pm 18:55 Clear 50 10 37 3 62 62 N 5 7 30.33 1027 10 16.09344 0 0
7:15 pm 19:15 Clear 46 8 37 3 71 71 N 5 7 30.36 1028 10 16.09344 0 0
7:35 pm 19:35 Clear 46 8 37 3 71 71 N 5 7 30.36 1028 10 16.09344 0 0
7:55 pm 19:55 Clear 46 8 36 2 66 66 NNE 5 7 30.33 1027 10 16.09344 0 0
8:15 pm 20:15 Clear 48 9 36 2 62 62 NNE 6 9 30.33 1027 10 16.09344 0 0
8:35 pm 20:35 Clear 46 8 36 2 66 66 N 6 9 30.33 1027 10 16.09344 0 0
8:55 pm 20:55 Clear 46 8 37 3 71 71 N 6 9 30.36 1028 10 16.09344 0 0
9:15 pm 21:15 Clear 46 8 36 2 66 66 Calm 30.36 1028 10 16.09344 0 0
9:35 pm 21:35 Partly Cloudy 46 8 37 3 71 71 Calm 30.36 1028 10 16.09344 0 0
9:55 pm 21:55 Partly Cloudy 43 6 41 5 93 93 NNW 3 6 30.36 1028 10 16.09344 0 0
10:15 pm 22:15 Mostly Cloudy 45 7 37 3 76 76 NNE 3 6 30.36 1028 10 16.09344 0 0
10:35 pm 22:35 Cloudy 46 8 37 3 71 71 NE 5 7 30.33 1027 10 16.09344 0 0
10:55 pm 22:55 Cloudy 46 8 37 3 71 71 Calm 30.33 1027 10 16.09344 0 0
11:15 pm 23:15 Cloudy 46 8 37 3 71 71 Calm 30.33 1027 10 16.09344 0 0
11:35 pm 23:35 Cloudy 46 8 37 3 71 71 Calm 30.36 1028 10 16.09344 0 0
11:55 pm 23:55 Cloudy 46 8 37 3 71 71 NNE 5 7 30.36 1028 10 16.09344 0 0

Powered by AerisWeather